Weather in Baklanovskaya

Russia / Stavropol Krai     45°27′15″N   41°36′36″E
В апреле 2022 года жителям России запретили посещать сайт meteo.paraplan.net по решению Генеральной прокуратуры. Аудитория сайта уменьшилась в 10 раз. Владельцы сайта не видят смысла в поддержке погодного сервера в таких условиях. Сайт будет закрыт в октябре.
temp.,
°C
wind,
m/s
gust,
m/s
humid.,
%
clouds,
%
prec.,
mm/h
press.,
hPa
HPBL,
m
29 september, thu
thu2900:00+18sw4953100 0.0 1008205
03:00+17wsw3135797 0.0 1010407
06:00+16sw397768 0.1 1011218
09:00+20wsw467628 0.1 1012601
12:00+24w455559 0.1 10121583
15:00+25sw4549100 1.1 10121775
18:00+22sw236177 0.0 101342
21:00+20ssw11655 0.0 101514
30 september, fri
fri3000:00+18ssw23730 0.0 101527
03:00+17ssw23794 0.0 101631
06:00+16s228324 0.0 101719
09:00+21ese12630 0.0 1018290
12:00+26e23470 0.0 10171348
15:00+27ese22400 0.0 10171903
18:00+24ene11485 0.0 101811
21:00+22ene12560 0.0 101811
1 october, sat
sat100:00+20sse11610 0.1 101811
03:00+19sw33655 0.1 101941
06:00+18sw34671 0.0 102045
09:00+22wsw22530 0.0 1021266
12:00+27w11420 0.0 10201077
15:00+28nw123488 0.0 10191844
18:00+25ene11427 0.0 101911
21:00+23se22476 0.0 101814
2 october, sun
sun200:00+21sse23515 0.0 101722
03:00+20s2255100 0.0 101720
06:00+19s2259100 0.0 101612
09:00+23ese234879 0.0 1015256
12:00+27ese4536100 0.0 10121157
15:00+28ese5633100 0.0 10101540
18:00+23e4942100 0.0 1009179
21:00+21e41244100 0.0 1007293
3 october, mon
mon300:00+20ese51350100 0.0 1005374
03:00+19e51056100 0.0 1004290
06:00+17se236610 0.0 100468
09:00+21w2350100 0.0 1005320
12:00+22w5860100 0.0 10071114
15:00+21w51065100 0.0 10091045
18:00+16wnw71091100 5.7 1012441
21:00+14w3585100 8.2 1014518